SCP
-0 -0 -0 -0 -0 -0 -0 -0 -0 -0 -0 -0 -0 -0 -0 -0 -0 -0 -0 -0 -0 -0 -0 0 0 0 0 0 0 0 0 -0 0 0 0 0 0 0 0 0 0 0 0 0 0 0 0
-0 -0 -0 -0 -0 -0 -0 -0 -0 -0 -0 -0 -0 -0 -0 -0 -0 -0 -0 -0 -0 -0 -0 0 0 0 0 0 -0 0 -0 -0 0 0 0 0 0 0 0 0 0 0 0 0 0 0 0
-0 -0 -0 -0 -0 -0 -0 -0 -0 -0 -0 -0 -0 -0 -0 -0 -0 -0 -0 -0 -0 -0 -0 0 0 0 0 0 -0 0 -0 0 0 0 0 0 0 0 0 0 0 0 0 0 0 0 -0
-0 -0 -0 -0 -0 -0 -0 -0 -0 -0 -0 -0 -0 -0 -0 -0 -0 -0 -0 -0 -0 -0 -0 -0 0 0 0 -0 0 0 0 0 -0 0 0 0 0 0 0 0 0 -0 -0 -0 0 0 -0
-0 -0 -0 -0 -0 -0 -0 -0 -0 -0 -0 -0 -0 -0 -0 -0 -0 -0 -0 -0 -0 -0 0 0 -0 0 -0 -0 0 -0 0 0 0 0 0 0 0 0 0 -0 0 0 0 0 0 -0 0
0 -0 -0 -0 -0 -0 -0 -0 -0 -0 -0 -0 -0 -0 -0 -0 -0 -0 -0 -0 -0 0 -0 0 0 0 0 -0 -0 0 0 0 0 0 0 0 0 0 0 0 0 0 0 0 0 0 0
0 0 0 -0 -0 -0 -0 -0 -0 -0 -0 -0 -0 -0 -0 -0 -0 -0 -0 0 0 0 -0 -0 -0 0 0 0 0 -0 -0 0 0 0 0 0 0 0 -0 0 -0 -0 -0 0 0 0 0
0 0 0 0 -0 -0 -0 -0 -0 -0 -0 -0 -0 -0 -0 -0 -0 0 0 0 0 0 0 0 -0 0 -0 0 -0 -0 -0 0 0 0 0 0 0 0 -0 0 0 0 -0 0 0 0 0
0 0 0 0 0 0 0 -0 -0 -0 -0 -0 -0 -0 -0 -0 -0 0 0 0 0 0 0 0 -0 -0 -0 0 0 -0 0 0 0 0 0 0 0 0 0 0 0 0 -0 0 0 0 0
0 0 0 0 0 0 0 0 -0 -0 -0 -0 -0 -0 -0 -0 0 0 0 0 0 0 0 0 -0 -0 -0 -0 -0 -0 0 0 0 0 0 0 0 0 0 0 0 0 0 0 0 0 0
0 0 0 0 0 0 0 0 0 -0 -0 -0 -0 -0 -0 0 0 0 0 0 0 0 0 0 -0 -0 -0 0 0 0 0 0 0 0 0 0 0 0 0 0 0 0 0 0 0 0 0
0 0 0 0 0 0 0 0 0 0 -0 -0 -0 -0 0 0 0 0 0 0 0 0 0 0 0 0 0 0 0 0 0 0 0 0 0 0 0 0 0 0 0 0 0 0 0 0 0
0 0 0 0 0 0 0 0 0 0 0 -0 -0 -0 0 0 0 0 -0 0 0 0 0 0 0 0 0 0 0 0 0 0 0 0 0 0 0 0 0 0 0 0 0 0 0 0 0
0 0 0 0 0 0 0 0 0 0 0 -0 -0 -0 -0 0 0 0 0 0 0 0 0 0 0 0 0 0 -0 0 0 0 0 0 0 0 0 0 0 0 0 0 0 0 0 0 0
0 0 0 0 0 0 0 0 0 0 0 0 0 -0 0 0 0 0 0 0 0 0 0 0 0 0 0 0 0 0 0 0 0 0 0 0 0 0 0 0 0 0 0 0 0 0 0
0 0 0 0 0 0 0 0 0 0 0 0 -0 0 0 0 0 0 0 0 0 0 0 0 0 0 0 0 0 0 0 0 0 0 0 0 0 0 0 0 0 0 0 0 0 0 0
0 0 0 0 0 0 0 0 0 0 0 0 0 0 0 0 0 0 0 0 0 0 0 0 0 0 0 0 0 0 0 0 0 0 0 0 0 0 0 0 0 0 0 0 0 0 0
0 0 0 0 0 0 0 0 0 0 0 0 0 0 0 0 0 0 0 0 0 0 0 0 0 0 0 0 0 0 0 0 0 0 0 0 0 0 0 0 0 0 0 0 0 0 0
0 0 0 0 0 0 0 0 0 0 0 0 0 0 0 0 0 0 0 0 0 0 0 0 0 0 0 0 0 0 0 0 0 0 0 0 0 0 0 0 0 0 0 0 0 0 0
0 0 0 0 0 0 0 0 0 0 0 0 0 0 0 0 0 0 0 0 0 0 0 0 0 0 0 0 0 0 0 0 0 0 0 0 0 0 0 0 0 0 0 0 0 0 0
0 0 0 0 0 0 0 0 0 0 0 0 0 0 0 0 0 0 0 0 0 0 0 0 0 0 0 0 0 0 0 0 0 0 0 0 0 0 0 0 0 0 0 0 0 0 0
0 0 0 0 0 0 0 0 0 0 0 0 0 0 0 0 0 0 0 0 0 0 0 0 0 0 0 0 0 0 0 0 0 0 0 0 0 0 0 0 0 0 0 0 0 0 0
0 0 0 0 0 0 0 0 0 0 0 0 0 0 0 0 0 0 0 0 0 0 0 0 0 0 0 0 0 0 0 0 0 0 0 0 0 0 0 0 0 0 0 0 0 0 0
0 0 0 0 0 0 0 0 0 0 0 0 0 0 0 0 0 0 0 0 0 0 0 0 0 0 0 0 0 0 0 0 0 0 0 0 0 0 0 0 0 0 0 0 0 0 0
0 0 0 0 0 0 0 0 0 0 0 0 0 0 0 0 0 0 0 0 0 0 0 0 0 0 0 0 0 0 0 0 0 0 0 0 0 0 0 0 0 0 0 0 0 0 0
0 0 0 0 0 0 0 0 0 0 0 0 0 0 0 0 0 0 0 0 0 0 0 0 0 0 0 0 0 0 0 0 0 0 0 0 0 0 0 0 0 0 0 0 0 0 0
0 0 0 0 0 0 0 0 0 0 0 0 0 0 0 0 0 0 0 0 0 0 0 0 0 0 0 0 0 0 0 0 0 0 0 0 0 0 0 0 0 0 0 0 0 0 0
0 0 0 0 0 0 0 0 0 0 0 0 0 0 0 0 0 0 0 0 0 0 0 0 0 0 0 0 0 0 0 0 0 0 0 0 0 0 0 0 0 0 0 0 0 0 0
0 0 0 0 0 0 0 0 0 0 0 0 0 0 0 0 0 0 0 0 0 0 0 0 0 0 0 0 0 0 0 0 0 0 0 0 0 0 0 0 0 0 0 0 0 0 0
Wind_Speed_500mb
29 33 38 41 45 50 55 60 64 60 60 50 40 29 22 15 13 15 18 19 19 14 8 1 4 6 6 3 3 10 4 6 9 15 9 9 16 6 4 11 23 5 5 6 11 9 8
27 30 34 38 43 48 54 60 64 61 61 55 44 34 23 16 13 15 17 18 16 13 6 5 8 8 4 4 9 7 16 16 12 5 7 25 12 21 6 8 1 12 7 11 8 11 5
23 26 31 35 40 46 52 58 61 62 59 59 49 37 24 18 15 14 16 15 13 10 7 8 8 5 5 3 7 10 13 14 8 10 17 18 13 11 18 15 28 6 9 14 11 5 4
20 23 27 31 36 41 46 52 57 60 58 60 54 41 27 19 16 15 14 12 10 8 6 10 7 9 5 7 3 4 1 3 9 5 6 10 11 11 7 20 19 13 11 8 13 7 8
20 23 26 30 33 38 42 47 52 58 59 56 55 44 29 21 17 15 10 10 9 7 5 2 5 8 3 6 19 10 8 10 2 3 1 9 6 5 11 8 11 13 7 8 20 19 11
21 24 26 29 32 35 39 43 48 52 56 56 52 46 30 20 18 12 11 11 9 3 6 13 19 14 6 4 10 10 4 6 8 7 10 10 2 6 9 10 5 8 6 11 10 4 13
22 24 26 29 32 35 39 42 44 47 50 53 50 44 33 20 15 8 19 13 16 2 20 26 44 28 9 14 8 15 9 10 12 8 2 4 11 3 13 13 14 5 3 11 12 13 9
26 28 30 31 33 36 38 41 43 45 47 49 51 45 32 19 10 5 14 14 18 25 21 37 37 39 30 10 12 13 15 8 4 7 5 11 8 17 15 7 4 14 12 12 8 17 10
29 31 32 34 35 37 39 41 43 44 46 46 48 50 36 14 11 11 18 14 22 27 7 31 22 20 26 19 17 29 14 7 12 7 12 13 15 10 5 6 9 8 13 8 3 10 5
31 33 34 35 36 38 40 42 44 46 46 46 46 47 45 21 10 14 21 20 22 26 8 12 9 12 27 20 12 30 13 13 6 5 2 8 4 8 11 9 8 8 2 9 10 9 4
32 34 35 37 39 40 41 42 44 45 47 48 44 46 43 31 21 11 26 22 20 5 4 6 14 12 20 20 18 13 12 7 2 8 8 7 6 3 11 6 6 8 2 5 3 5 8
34 35 36 38 41 42 43 44 45 46 47 48 46 46 45 35 21 14 24 25 17 10 10 7 18 14 11 14 6 21 8 7 6 3 7 6 5 9 10 6 7 3 10 17 12 7 4
39 37 36 38 40 43 46 47 47 46 48 49 48 44 44 34 21 17 22 20 9 5 9 11 13 13 12 11 11 14 11 5 6 6 6 11 13 8 9 10 17 18 13 7 9 8 11
43 42 41 39 39 41 44 48 49 49 48 51 50 47 42 26 6 8 19 8 4 10 11 9 10 12 15 14 10 16 12 6 7 7 5 7 8 9 7 8 8 6 11 10 9 5 10
47 44 43 42 42 41 42 44 48 49 49 54 51 48 41 13 11 7 6 5 12 8 10 14 8 8 7 9 10 8 11 8 5 4 12 6 5 7 10 5 8 7 3 10 7 4 5
53 50 47 43 42 43 41 43 45 46 47 50 52 51 30 22 20 17 6 10 9 9 9 6 7 9 8 9 5 12 11 8 7 7 9 3 5 5 8 5 5 10 7 6 7 5 6
55 54 51 49 44 41 42 39 42 43 42 43 41 27 5 16 27 18 7 13 11 22 2 6 3 6 7 6 6 3 9 10 7 7 22 7 8 11 7 4 3 8 5 9 8 8 8
58 57 56 52 48 45 40 40 37 39 37 35 18 9 5 9 15 3 6 10 8 15 5 2 4 4 4 7 5 9 5 6 8 7 7 2 9 2 11 11 5 5 6 8 9 11 3
63 60 58 55 51 45 43 37 36 32 31 31 26 22 28 26 5 7 11 12 36 16 5 4 7 7 6 4 5 7 6 8 16 8 14 9 4 5 16 13 13 9 7 4 7 6 9
64 63 60 57 53 49 44 38 34 29 23 23 10 6 10 10 13 8 7 9 10 6 9 10 6 9 10 10 9 3 7 12 15 13 17 14 7 11 12 8 6 8 14 9 7 6 8
62 60 61 59 54 51 47 41 34 31 23 13 10 11 7 6 8 11 3 4 3 3 4 10 7 4 1 2 5 8 11 6 16 21 7 10 8 7 7 6 4 5 12 17 8 13 11
67 61 57 58 57 53 49 43 39 32 26 21 9 5 11 33 22 12 2 5 4 3 5 6 10 16 15 10 4 5 2 7 3 7 5 5 3 5 4 7 10 13 18 19 19 23 10
67 73 65 52 55 54 51 46 41 36 28 16 13 22 13 10 8 3 7 6 3 17 8 15 17 13 15 6 8 7 4 5 9 13 5 9 10 7 8 6 8 12 10 9 6 11 7
61 65 60 63 54 56 52 50 44 40 36 34 24 13 8 8 4 4 14 21 13 11 14 11 21 12 9 3 2 3 6 10 12 11 16 12 11 7 8 4 5 13 12 22 26 14 16
50 56 58 58 59 52 53 51 48 44 40 40 32 16 7 6 7 10 15 4 23 15 5 7 11 18 13 8 9 11 11 10 11 16 17 17 10 4 8 7 10 13 5 5 7 5 6
41 50 63 63 57 55 52 53 51 48 42 43 34 23 14 5 9 16 8 8 8 5 6 11 24 17 9 8 6 8 9 10 5 2 13 12 9 10 6 7 10 7 8 10 12 1 2
41 46 54 66 49 53 56 59 52 50 44 42 33 30 19 11 13 11 4 4 10 9 7 10 11 8 11 5 4 6 7 4 5 11 7 6 5 11 5 6 13 7 13 2 9 12 3
39 38 47 57 63 50 56 56 50 50 46 43 38 34 30 13 6 3 7 9 13 9 8 7 9 3 6 5 7 8 7 7 4 6 14 12 11 7 5 4 11 12 3 9 13 15 24
37 36 39 47 65 65 43 54 60 46 45 42 38 28 28 23 9 13 5 8 9 14 14 9 8 7 11 6 2 2 3 4 3 3 9 3 12 9 13 11 8 6 2 17 19 28 17
Wind_Direction_500mb
30 30 28 26 21 19 17 16 15 15 11 7 0 355 348 346 341 348 354 357 359 4 358 37 127 137 110 325 274 354 108 84 107 137 169 333 335 335 253 287 328 163 291 98 96 88 73
24 24 21 20 19 17 15 16 15 14 11 11 5 360 357 353 350 348 352 355 358 8 23 93 123 131 101 6 54 65 106 85 95 87 0 345 293 320 297 299 90 311 95 33 17 10 339
15 13 13 14 14 14 14 13 13 13 11 11 8 6 4 5 2 358 353 356 6 20 62 102 114 121 277 85 107 61 82 62 22 340 347 8 3 322 336 330 326 303 16 0 313 298 289
359 1 5 7 8 9 11 10 10 12 11 10 10 10 9 12 8 1 355 4 21 41 84 100 67 340 259 173 178 275 100 146 20 256 312 346 320 297 295 320 349 15 48 27 292 84 227
345 347 353 356 359 3 4 6 8 9 11 9 9 10 11 10 5 357 13 28 40 69 105 64 343 353 303 234 223 217 261 261 277 106 95 339 316 334 345 62 5 3 255 246 299 209 142
331 335 338 343 349 354 356 -0 3 6 8 8 7 8 8 7 2 17 34 24 23 15 299 292 282 306 212 194 135 203 242 239 213 271 266 256 281 43 29 68 238 273 316 279 218 227 75
322 324 327 332 338 342 348 351 356 360 3 6 4 3 2 358 5 45 24 27 1 315 317 287 289 278 306 158 147 183 196 189 252 252 181 345 59 241 252 210 201 240 6 20 15 0 98
318 319 322 326 330 334 337 342 347 352 356 359 2 359 357 345 355 23 12 14 9 314 297 291 286 275 264 168 187 197 181 239 226 231 106 20 218 237 209 184 53 33 56 356 341 4 74
315 315 317 320 323 326 330 333 338 343 347 353 355 357 350 339 342 3 337 348 357 355 276 297 253 242 209 197 220 198 206 252 230 264 255 169 227 194 123 42 78 31 80 67 96 309 50
308 310 312 314 316 320 323 326 330 334 340 344 349 350 349 336 315 355 14 356 339 319 46 273 205 237 208 210 224 212 193 240 342 249 202 161 257 132 62 69 89 76 350 53 22 61 261
305 307 308 310 312 315 317 319 322 326 332 335 341 342 345 326 304 343 345 333 338 319 351 219 201 229 207 181 143 177 184 225 128 295 49 216 128 108 87 153 96 183 42 24 323 20 45
298 302 306 308 311 312 314 315 317 319 323 326 330 338 334 328 283 332 337 321 310 47 255 228 164 173 136 197 209 152 185 194 258 315 355 239 249 165 143 93 52 317 27 17 35 77 3
291 293 296 302 307 310 312 313 313 315 318 319 321 329 327 318 275 331 319 333 51 161 297 201 174 167 174 218 180 167 178 178 163 79 334 0 352 356 105 76 17 64 58 355 354 7 223
285 291 295 297 300 304 308 310 312 314 316 315 316 321 317 305 169 316 340 47 184 262 274 284 183 169 180 189 236 190 138 157 93 126 93 124 3 357 17 111 153 72 134 150 224 229 274
276 279 284 290 295 299 303 306 308 312 316 316 316 318 315 241 184 266 318 65 214 243 325 352 357 116 222 189 151 121 164 165 113 109 130 134 163 17 75 102 101 312 9 177 127 322 74
270 273 276 278 285 291 297 303 306 309 315 321 324 323 319 173 203 226 94 231 253 277 318 35 41 36 23 321 157 146 166 360 90 68 119 175 119 343 19 40 328 149 173 41 7 201 239
269 268 270 274 277 281 290 296 302 307 312 321 327 320 232 190 191 190 166 228 289 299 7 57 110 44 33 356 14 61 46 10 85 77 69 79 88 294 44 65 353 6 38 65 115 139 167
270 268 266 267 271 277 281 288 296 304 312 318 320 317 161 81 260 177 188 208 221 255 115 82 82 31 14 33 35 68 106 107 111 114 85 15 130 236 231 271 184 144 130 114 117 276 131
267 268 267 265 264 267 273 280 287 299 312 328 318 280 258 276 195 261 270 265 262 219 68 69 64 61 16 105 77 81 121 138 122 103 160 177 43 33 344 354 5 45 12 109 123 83 200
266 263 263 263 261 261 264 269 275 283 297 316 300 324 298 299 240 189 261 274 326 102 119 105 117 62 59 30 22 16 129 190 143 121 119 110 111 156 194 181 218 321 325 311 147 126 224
262 266 261 260 258 254 255 258 262 268 274 290 237 246 286 298 320 314 17 276 1 344 80 115 48 66 251 228 352 30 27 83 40 135 79 101 142 188 236 279 6 287 297 301 292 227 178
249 255 262 259 256 253 249 248 251 254 255 260 255 268 318 303 292 269 91 283 267 350 92 75 95 44 67 86 58 89 45 50 146 246 95 15 202 146 292 303 337 306 284 269 274 276 166
251 256 251 256 252 249 245 242 242 245 241 235 230 261 269 270 296 48 235 245 236 121 60 71 127 104 73 102 74 40 24 130 139 152 144 131 133 113 250 253 335 319 256 238 207 18 140
256 244 246 251 254 245 242 237 234 238 237 232 234 288 258 264 239 230 310 298 142 134 143 99 80 96 136 69 309 325 292 253 236 229 163 143 134 132 203 50 236 239 302 96 94 49 65
261 249 240 241 241 245 238 235 231 230 234 237 235 239 245 254 266 312 304 226 116 108 108 107 109 130 125 62 40 14 345 351 236 210 203 170 133 137 151 188 290 319 334 188 144 47 60
266 252 240 241 244 241 239 233 228 226 228 235 229 223 237 228 233 328 302 132 129 104 37 93 119 133 121 91 92 176 223 225 246 126 53 99 102 130 134 156 226 241 319 131 87 166 199
272 261 243 230 240 240 230 229 225 223 223 229 224 208 225 241 276 335 111 135 107 106 117 139 167 108 120 107 128 182 245 238 251 157 156 79 56 152 145 191 283 249 308 185 131 221 106
270 267 253 238 234 239 227 231 223 219 221 222 217 204 211 229 244 101 156 153 134 132 138 149 90 356 55 104 147 225 188 242 156 170 169 157 147 196 107 150 274 200 87 174 177 145 129
273 266 263 245 232 241 242 212 217 217 219 216 217 200 214 229 219 199 161 171 198 188 155 139 133 149 170 101 195 127 7 41 115 212 350 131 170 184 168 215 237 207 164 166 163 127 100
Wind_Speed_850mb
29 33 38 41 45 50 55 60 64 60 60 50 40 29 22 15 13 15 18 19 19 14 8 1 4 6 6 3 3 10 4 6 9 15 9 9 16 6 4 11 23 5 5 6 11 9 8
27 30 34 38 43 48 54 60 64 61 61 55 44 34 23 16 13 15 17 18 16 13 6 5 8 8 4 4 9 7 16 16 12 5 7 25 12 21 6 8 1 12 7 11 8 11 5
23 26 31 35 40 46 52 58 61 62 59 59 49 37 24 18 15 14 16 15 13 10 7 8 8 5 5 3 7 10 13 14 8 10 17 18 13 11 18 15 28 6 9 14 11 5 4
20 23 27 31 36 41 46 52 57 60 58 60 54 41 27 19 16 15 14 12 10 8 6 10 7 9 5 7 3 4 1 3 9 5 6 10 11 11 7 20 19 13 11 8 13 7 8
20 23 26 30 33 38 42 47 52 58 59 56 55 44 29 21 17 15 10 10 9 7 5 2 5 8 3 6 19 10 8 10 2 3 1 9 6 5 11 8 11 13 7 8 20 19 11
21 24 26 29 32 35 39 43 48 52 56 56 52 46 30 20 18 12 11 11 9 3 6 13 19 14 6 4 10 10 4 6 8 7 10 10 2 6 9 10 5 8 6 11 10 4 13
22 24 26 29 32 35 39 42 44 47 50 53 50 44 33 20 15 8 19 13 16 2 20 26 44 28 9 14 8 15 9 10 12 8 2 4 11 3 13 13 14 5 3 11 12 13 9
26 28 30 31 33 36 38 41 43 45 47 49 51 45 32 19 10 5 14 14 18 25 21 37 37 39 30 10 12 13 15 8 4 7 5 11 8 17 15 7 4 14 12 12 8 17 10
29 31 32 34 35 37 39 41 43 44 46 46 48 50 36 14 11 11 18 14 22 27 7 31 22 20 26 19 17 29 14 7 12 7 12 13 15 10 5 6 9 8 13 8 3 10 5
31 33 34 35 36 38 40 42 44 46 46 46 46 47 45 21 10 14 21 20 22 26 8 12 9 12 27 20 12 30 13 13 6 5 2 8 4 8 11 9 8 8 2 9 10 9 4
32 34 35 37 39 40 41 42 44 45 47 48 44 46 43 31 21 11 26 22 20 5 4 6 14 12 20 20 18 13 12 7 2 8 8 7 6 3 11 6 6 8 2 5 3 5 8
34 35 36 38 41 42 43 44 45 46 47 48 46 46 45 35 21 14 24 25 17 10 10 7 18 14 11 14 6 21 8 7 6 3 7 6 5 9 10 6 7 3 10 17 12 7 4
39 37 36 38 40 43 46 47 47 46 48 49 48 44 44 34 21 17 22 20 9 5 9 11 13 13 12 11 11 14 11 5 6 6 6 11 13 8 9 10 17 18 13 7 9 8 11
43 42 41 39 39 41 44 48 49 49 48 51 50 47 42 26 6 8 19 8 4 10 11 9 10 12 15 14 10 16 12 6 7 7 5 7 8 9 7 8 8 6 11 10 9 5 10
47 44 43 42 42 41 42 44 48 49 49 54 51 48 41 13 11 7 6 5 12 8 10 14 8 8 7 9 10 8 11 8 5 4 12 6 5 7 10 5 8 7 3 10 7 4 5
53 50 47 43 42 43 41 43 45 46 47 50 52 51 30 22 20 17 6 10 9 9 9 6 7 9 8 9 5 12 11 8 7 7 9 3 5 5 8 5 5 10 7 6 7 5 6
55 54 51 49 44 41 42 39 42 43 42 43 41 27 5 16 27 18 7 13 11 22 2 6 3 6 7 6 6 3 9 10 7 7 22 7 8 11 7 4 3 8 5 9 8 8 8
58 57 56 52 48 45 40 40 37 39 37 35 18 9 5 9 15 3 6 10 8 15 5 2 4 4 4 7 5 9 5 6 8 7 7 2 9 2 11 11 5 5 6 8 9 11 3
63 60 58 55 51 45 43 37 36 32 31 31 26 22 28 26 5 7 11 12 36 16 5 4 7 7 6 4 5 7 6 8 16 8 14 9 4 5 16 13 13 9 7 4 7 6 9
64 63 60 57 53 49 44 38 34 29 23 23 10 6 10 10 13 8 7 9 10 6 9 10 6 9 10 10 9 3 7 12 15 13 17 14 7 11 12 8 6 8 14 9 7 6 8
62 60 61 59 54 51 47 41 34 31 23 13 10 11 7 6 8 11 3 4 3 3 4 10 7 4 1 2 5 8 11 6 16 21 7 10 8 7 7 6 4 5 12 17 8 13 11
67 61 57 58 57 53 49 43 39 32 26 21 9 5 11 33 22 12 2 5 4 3 5 6 10 16 15 10 4 5 2 7 3 7 5 5 3 5 4 7 10 13 18 19 19 23 10
67 73 65 52 55 54 51 46 41 36 28 16 13 22 13 10 8 3 7 6 3 17 8 15 17 13 15 6 8 7 4 5 9 13 5 9 10 7 8 6 8 12 10 9 6 11 7
61 65 60 63 54 56 52 50 44 40 36 34 24 13 8 8 4 4 14 21 13 11 14 11 21 12 9 3 2 3 6 10 12 11 16 12 11 7 8 4 5 13 12 22 26 14 16
50 56 58 58 59 52 53 51 48 44 40 40 32 16 7 6 7 10 15 4 23 15 5 7 11 18 13 8 9 11 11 10 11 16 17 17 10 4 8 7 10 13 5 5 7 5 6
41 50 63 63 57 55 52 53 51 48 42 43 34 23 14 5 9 16 8 8 8 5 6 11 24 17 9 8 6 8 9 10 5 2 13 12 9 10 6 7 10 7 8 10 12 1 2
41 46 54 66 49 53 56 59 52 50 44 42 33 30 19 11 13 11 4 4 10 9 7 10 11 8 11 5 4 6 7 4 5 11 7 6 5 11 5 6 13 7 13 2 9 12 3
39 38 47 57 63 50 56 56 50 50 46 43 38 34 30 13 6 3 7 9 13 9 8 7 9 3 6 5 7 8 7 7 4 6 14 12 11 7 5 4 11 12 3 9 13 15 24
37 36 39 47 65 65 43 54 60 46 45 42 38 28 28 23 9 13 5 8 9 14 14 9 8 7 11 6 2 2 3 4 3 3 9 3 12 9 13 11 8 6 2 17 19 28 17
Wind_Direction_850mb
30 30 28 26 21 19 17 16 15 15 11 7 0 355 348 346 341 348 354 357 359 4 358 37 127 137 110 325 274 354 108 84 107 137 169 333 335 335 253 287 328 163 291 98 96 88 73
24 24 21 20 19 17 15 16 15 14 11 11 5 360 357 353 350 348 352 355 358 8 23 93 123 131 101 6 54 65 106 85 95 87 0 345 293 320 297 299 90 311 95 33 17 10 339
15 13 13 14 14 14 14 13 13 13 11 11 8 6 4 5 2 358 353 356 6 20 62 102 114 121 277 85 107 61 82 62 22 340 347 8 3 322 336 330 326 303 16 0 313 298 289
359 1 5 7 8 9 11 10 10 12 11 10 10 10 9 12 8 1 355 4 21 41 84 100 67 340 259 173 178 275 100 146 20 256 312 346 320 297 295 320 349 15 48 27 292 84 227
345 347 353 356 359 3 4 6 8 9 11 9 9 10 11 10 5 357 13 28 40 69 105 64 343 353 303 234 223 217 261 261 277 106 95 339 316 334 345 62 5 3 255 246 299 209 142
331 335 338 343 349 354 356 -0 3 6 8 8 7 8 8 7 2 17 34 24 23 15 299 292 282 306 212 194 135 203 242 239 213 271 266 256 281 43 29 68 238 273 316 279 218 227 75
322 324 327 332 338 342 348 351 356 360 3 6 4 3 2 358 5 45 24 27 1 315 317 287 289 278 306 158 147 183 196 189 252 252 181 345 59 241 252 210 201 240 6 20 15 0 98
318 319 322 326 330 334 337 342 347 352 356 359 2 359 357 345 355 23 12 14 9 314 297 291 286 275 264 168 187 197 181 239 226 231 106 20 218 237 209 184 53 33 56 356 341 4 74
315 315 317 320 323 326 330 333 338 343 347 353 355 357 350 339 342 3 337 348 357 355 276 297 253 242 209 197 220 198 206 252 230 264 255 169 227 194 123 42 78 31 80 67 96 309 50
308 310 312 314 316 320 323 326 330 334 340 344 349 350 349 336 315 355 14 356 339 319 46 273 205 237 208 210 224 212 193 240 342 249 202 161 257 132 62 69 89 76 350 53 22 61 261
305 307 308 310 312 315 317 319 322 326 332 335 341 342 345 326 304 343 345 333 338 319 351 219 201 229 207 181 143 177 184 225 128 295 49 216 128 108 87 153 96 183 42 24 323 20 45
298 302 306 308 311 312 314 315 317 319 323 326 330 338 334 328 283 332 337 321 310 47 255 228 164 173 136 197 209 152 185 194 258 315 355 239 249 165 143 93 52 317 27 17 35 77 3
291 293 296 302 307 310 312 313 313 315 318 319 321 329 327 318 275 331 319 333 51 161 297 201 174 167 174 218 180 167 178 178 163 79 334 0 352 356 105 76 17 64 58 355 354 7 223
285 291 295 297 300 304 308 310 312 314 316 315 316 321 317 305 169 316 340 47 184 262 274 284 183 169 180 189 236 190 138 157 93 126 93 124 3 357 17 111 153 72 134 150 224 229 274
276 279 284 290 295 299 303 306 308 312 316 316 316 318 315 241 184 266 318 65 214 243 325 352 357 116 222 189 151 121 164 165 113 109 130 134 163 17 75 102 101 312 9 177 127 322 74
270 273 276 278 285 291 297 303 306 309 315 321 324 323 319 173 203 226 94 231 253 277 318 35 41 36 23 321 157 146 166 360 90 68 119 175 119 343 19 40 328 149 173 41 7 201 239
269 268 270 274 277 281 290 296 302 307 312 321 327 320 232 190 191 190 166 228 289 299 7 57 110 44 33 356 14 61 46 10 85 77 69 79 88 294 44 65 353 6 38 65 115 139 167
270 268 266 267 271 277 281 288 296 304 312 318 320 317 161 81 260 177 188 208 221 255 115 82 82 31 14 33 35 68 106 107 111 114 85 15 130 236 231 271 184 144 130 114 117 276 131
267 268 267 265 264 267 273 280 287 299 312 328 318 280 258 276 195 261 270 265 262 219 68 69 64 61 16 105 77 81 121 138 122 103 160 177 43 33 344 354 5 45 12 109 123 83 200
266 263 263 263 261 261 264 269 275 283 297 316 300 324 298 299 240 189 261 274 326 102 119 105 117 62 59 30 22 16 129 190 143 121 119 110 111 156 194 181 218 321 325 311 147 126 224
262 266 261 260 258 254 255 258 262 268 274 290 237 246 286 298 320 314 17 276 1 344 80 115 48 66 251 228 352 30 27 83 40 135 79 101 142 188 236 279 6 287 297 301 292 227 178
249 255 262 259 256 253 249 248 251 254 255 260 255 268 318 303 292 269 91 283 267 350 92 75 95 44 67 86 58 89 45 50 146 246 95 15 202 146 292 303 337 306 284 269 274 276 166
251 256 251 256 252 249 245 242 242 245 241 235 230 261 269 270 296 48 235 245 236 121 60 71 127 104 73 102 74 40 24 130 139 152 144 131 133 113 250 253 335 319 256 238 207 18 140
256 244 246 251 254 245 242 237 234 238 237 232 234 288 258 264 239 230 310 298 142 134 143 99 80 96 136 69 309 325 292 253 236 229 163 143 134 132 203 50 236 239 302 96 94 49 65
261 249 240 241 241 245 238 235 231 230 234 237 235 239 245 254 266 312 304 226 116 108 108 107 109 130 125 62 40 14 345 351 236 210 203 170 133 137 151 188 290 319 334 188 144 47 60
266 252 240 241 244 241 239 233 228 226 228 235 229 223 237 228 233 328 302 132 129 104 37 93 119 133 121 91 92 176 223 225 246 126 53 99 102 130 134 156 226 241 319 131 87 166 199
272 261 243 230 240 240 230 229 225 223 223 229 224 208 225 241 276 335 111 135 107 106 117 139 167 108 120 107 128 182 245 238 251 157 156 79 56 152 145 191 283 249 308 185 131 221 106
270 267 253 238 234 239 227 231 223 219 221 222 217 204 211 229 244 101 156 153 134 132 138 149 90 356 55 104 147 225 188 242 156 170 169 157 147 196 107 150 274 200 87 174 177 145 129
273 266 263 245 232 241 242 212 217 217 219 216 217 200 214 229 219 199 161 171 198 188 155 139 133 149 170 101 195 127 7 41 115 212 350 131 170 184 168 215 237 207 164 166 163 127 100